Location: Unspecified
(0.0000°N, 0.0000°E)
Time: 08:55:42
(UTC+00:00)

Courier 1B Rocket - Pass Details

Date: 28 May 2026
Orbit: 920 x 1201 km, 28.2° (Epoch: 9 June)

Event Time Altitude Azimuth Distance (km) Brightness Sun altitude
Rises 07:43:05 0° 329° (NNW) 3,579 7.9 24.5°
Reaches altitude 10° 07:47:22 10° 356° (N) 2,607 7.6 25.5°
Maximum altitude 07:50:09 13° 23° (NNE) 2,378 7.9 26.1°
Drops below altitude 10° 07:52:56 10° 50° (NE) 2,598 8.8 26.7°
Sets 07:57:10 0° 77° (ENE) 3,555 9.2 27.7°
